Terminal Aerodrome Forecast
Issued by NWS Twin Cities, MN

Home | Current Version | Previous Version | Graphics & Text | Print | Product List | Glossary On
Versions: 1 2 3 4 5 6 7 8 9 10 11 12 13 14 15 16 17 18 19 20 21 22 23 24 25
000
FTUS43 KMPX 012320
TAFEAU
TAF
KEAU 012320Z 0200/0224 19004KT P6SM SCT040 BKN200 PROB30 0210/0213
      5SM -TSRA BKN050CB OVC100
     FM021300 17006KT P6SM BKN100 OVC150
     FM022100 18011KT P6SM VCTS BKN050CB=

USA.gov is the U.S. government's official web portal to all federal, state and local government web resources and services.